Regional Weather Roundup
Issued by NWS

Home | Current Version | Previous Version | Text Only | Print | Product List | Glossary Off
Versions: 1 2 3 4 5 6 7 8 9 10 11 12 13 14 15 16 17 18 19 20 21 22 23 24 25 26 27 28 29 30 31 32 33 34 35 36 37 38 39 40 41 42 43 44 45 46 47 48 49 50

000
ASUS43 KIND 210509
RWRIN

WEATHER ROUNDUP FOR INDIANA
NATIONAL WEATHER SERVICE INDIANAPOLIS IN
100 AM EDT SAT OCT 21 2017

NOTE: "FAIR" INDICATES FEW OR NO CLOUDS BELOW 12,000 FEET WITH NO
SIGNIFICANT WEATHER AND/OR OBSTRUCTIONS TO VISIBILITY.

* - STATION DOES NOT REPORT WEATHER SUCH AS PRECIPITATION OR FOG.

+ - STATION NOT QUALITY CONTROLLED BY THE NATIONAL WEATHER SERVICE.
    USE DATA WITH CAUTION...ESPECIALLY DEWPOINT AND RELATIVE
    HUMIDITY OBSERVATIONS.

INZ001>003-010>013-019-020-210600-
NORTHWEST INDIANA

CITY           SKY/WX    TMP DP  RH WIND       PRES   REMARKS
GARY /AIRPORT/ CLOUDY    65  46  50 S7        30.09S
KNOX *+        CLOUDY    59  50  72 S7        30.12S
LA PORTE +     PTCLDY    58  49  70 S5        30.11F
MICHIGAN CITY+ PTCLDY    61  46  59 S10       30.10S
MONTICELLO +   CLOUDY    58  49  72 SE3       30.12S
RENSSELAER +   CLOUDY    59  41  51 S6        30.11S
VALPARAISO     CLOUDY    60  49  66 S5        30.11S

$$

LMZ046-743>745-210600-
SOUTHERN LAKE MICHIGAN

STATION/POSITION TIME  TEMP    WIND        PRES    WAVE
                       AIR SEA DIR/SP/G            HT
                 (UTC) (F)     (DEG/KT/KT) (MB)    (FT)
BURNS HARBOR     0440   65     190/ 12/ 16 1019.3R
MICHIGAN CITY    0440   64     170/ 11/ 14   N/A
5NW MICH CITY    0500   61 58  190/ 10/ 12   N/A     1

$$

INZ004-005-014>016-021>024-210600-
NORTH CENTRAL INDIANA

CITY           SKY/WX    TMP DP  RH WIND       PRES   REMARKS
GOSHEN         PTCLDY    61  47  59 S8        30.13S
LOGANSPORT +   PTCLDY    57  50  77 S7        30.14S
PERU/GRISSOM   CLOUDY    57  49  74 S6        30.13S
SOUTH BEND     CLOUDY    59  49  69 S5        30.12S
WARSAW +       CLOUDY    59  48  67 CALM      30.14S

$$

INZ006>009-017-018-025>027-210600-
NORTHEAST INDIANA

CITY           SKY/WX    TMP DP  RH WIND       PRES   REMARKS
AUBURN +       CLEAR     55  48  76 CALM      30.16S
FORT WAYNE     CLOUDY    55  48  77 S5        30.16S
HUNTINGTON +   CLOUDY    56  49  77 CALM      30.15S
KENDALLVILLE + CLOUDY    57  49  74 S5        30.15S

$$

INZ028-029-035-036-043>045-051>053-210600-
WEST CENTRAL INDIANA

CITY           SKY/WX    TMP DP  RH WIND       PRES   REMARKS
CRAWFORDSVL +  MOCLDY    54  48  82 SE7       30.13F
GREENCASTLE +  CLOUDY    54  45  71 S3        30.15F
LAFAYETTE      MOCLDY    57  50  77 CALM      30.12F
TERRE HAUTE    PTCLDY    56  48  74 SE5       30.14F

$$

INZ030>032-037>040-046>048-054>057-064-065-210600-
CENTRAL INDIANA

CITY           SKY/WX    TMP DP  RH WIND       PRES   REMARKS
CP ATTERBURY + CLOUDY    52  48  87 CALM      30.17S
FRANKFORT +    PTCLDY    60  52  74 CALM      30.15S
GREENWOOD *+   CLOUDY    62  51  68 S6        30.17S
INDIANAPOLIS   PTCLDY    58  48  69 SE6       30.16R
-EAGLE CREEK   PTCLDY    56  48  74 SE3       30.15S
KOKOMO +       CLOUDY    55  49  80 SE5       30.15S
MARION +       CLOUDY    52  46  82 CALM      30.16S
MT COMFORT *+  CLOUDY    57  54  88 S5        30.17R
SHELBYVILLE    CLOUDY    59  50  72 SE8       30.16S
ZIONSVILLE +   PTCLDY    54  48  79 SE5       30.16S

$$

INZ033-034-041-042-049-050-058-059-210600-
EAST CENTRAL INDIANA

CITY           SKY/WX    TMP DP  RH WIND       PRES   REMARKS
MUNCIE         CLOUDY    62  50  64 S7        30.16F
RICHMOND +     CLOUDY    50  50 100 S5        30.20S

$$

INZ060-061-067>069-081>083-085>088-210600-
SOUTHWEST INDIANA

CITY           SKY/WX    TMP DP  RH WIND       PRES   REMARKS
EVANSVILLE     PTCLDY    59  49  69 S3        30.15S
HUNTINGBURG +  CLOUDY    59  50  72 S3        30.15F
WASHINGTON +   CLOUDY    53  47  82 SE7       30.13F

$$

INZ062-063-066-070>080-084-089>092-210600-
SOUTH CENTRAL AND SOUTHEAST INDIANA

CITY           SKY/WX    TMP DP  RH WIND       PRES   REMARKS
BEDFORD +      CLOUDY    54  48  82 CALM      30.16S
BLOOMINGTON    CLOUDY    56  47  71 SE5       30.15F
MADISON *+     CLOUDY    54  50  87 CALM      30.20F
NORTH VERNON + PTCLDY    55  50  82 SE3       30.18F
SEYMOUR +      PTCLDY    57  50  77 SE3       30.17S

$$





USA.gov is the U.S. government's official web portal to all federal, state and local government web resources and services.